Retour au catalogue

SL-14 R/B

ActifPO
NORAD 16327·ROCKET BODY·🇷🇺 Russia

Lancé Dec 12, 1985 depuis Plesetsk Cosmodrome

Loading…

Prochains Passages (prochaines 24 heures)

TLE

FraisSource: Space-Track

Époque: Sep 14, 2026, 06:29 UTC

1 16327U 85113B   26257.27063787  .00000335  00000-0  35483-4 0  9997
2 16327  82.5363 172.6387 0018357   7.9083 160.9679 14.85942447181469

Suivez SL-14 R/B en temps réel avec AllMySat

Download on the App Store